Time,TemperatureF,DewpointF,PressureIn,WindDirection,WindDirectionDegrees,WindSpeedMPH,WindSpeedGustMPH,Humidity,HourlyPrecipIn,Conditions,Clouds,dailyrainin,SoftwareType,DateUTC
2013-02-12 00:01:00,33.0,29.0,29.71,West,266,20.0,38.0,85,0.00,,,0.18,,2013-02-12 05:01:00,
2013-02-12 00:11:00,33.0,29.0,29.71,West,266,20.0,38.0,85,0.00,,,0.18,,2013-02-12 05:11:00,
2013-02-12 00:21:00,33.0,29.0,29.71,SW,236,19.0,35.0,85,0.00,,,0.18,,2013-02-12 05:21:00,
2013-02-12 00:32:00,33.0,29.0,29.71,WSW,252,23.0,38.0,85,0.00,,,0.18,,2013-02-12 05:32:00,
2013-02-12 00:42:00,33.0,29.0,29.71,WSW,252,23.0,38.0,85,0.00,,,0.18,,2013-02-12 05:42:00,
2013-02-12 00:52:00,33.0,29.0,29.72,SW,231,19.0,33.0,86,0.00,,,0.18,,2013-02-12 05:52:00,
2013-02-12 01:02:00,33.0,29.0,29.72,SW,236,17.0,32.0,85,0.00,,,0.18,,2013-02-12 06:02:00,
2013-02-12 01:12:00,33.0,28.0,29.73,WSW,250,19.0,32.0,83,0.00,,,0.17,,2013-02-12 06:12:00,
2013-02-12 01:22:00,33.0,28.0,29.73,WSW,250,19.0,32.0,83,0.00,,,0.17,,2013-02-12 06:22:00,
2013-02-12 01:32:00,33.0,28.0,29.73,West,277,18.0,34.0,82,0.00,,,0.17,,2013-02-12 06:32:00,
2013-02-12 01:42:00,34.0,29.0,29.74,WSW,253,17.0,26.0,82,0.00,,,0.17,,2013-02-12 06:42:00,
2013-02-12 01:52:00,34.0,29.0,29.74,WSW,253,17.0,26.0,82,0.00,,,0.17,,2013-02-12 06:52:00,
2013-02-12 02:01:00,34.0,29.0,29.75,WSW,253,16.0,29.0,82,0.00,,,0.17,,2013-02-12 07:01:00,
2013-02-12 02:11:00,34.0,29.0,29.75,WSW,253,16.0,29.0,82,0.00,,,0.17,,2013-02-12 07:11:00,
2013-02-12 02:21:00,34.0,29.0,29.75,SW,233,17.0,34.0,81,0.00,,,0.17,,2013-02-12 07:21:00,
2013-02-12 02:32:00,33.0,28.0,29.76,WNW,287,15.0,34.0,81,0.00,,,0.17,,2013-02-12 07:32:00,
2013-02-12 02:42:00,33.0,28.0,29.76,WNW,287,15.0,34.0,81,0.00,,,0.17,,2013-02-12 07:42:00,
2013-02-12 02:52:00,33.0,28.0,29.76,West,273,19.0,33.0,81,0.00,,,0.17,,2013-02-12 07:52:00,
2013-02-12 03:01:00,33.0,28.0,29.77,SW,214,18.0,31.0,81,0.00,,,0.17,,2013-02-12 08:01:00,
2013-02-12 03:11:00,33.0,28.0,29.77,SW,214,18.0,31.0,81,0.00,,,0.17,,2013-02-12 08:11:00,
2013-02-12 03:22:00,33.0,28.0,29.77,West,267,15.0,31.0,81,0.00,,,0.16,,2013-02-12 08:22:00,
2013-02-12 03:32:00,33.0,28.0,29.78,WSW,242,15.0,31.0,81,0.00,,,0.16,,2013-02-12 08:32:00,
2013-02-12 03:42:00,33.0,28.0,29.78,WSW,242,15.0,31.0,81,0.00,,,0.16,,2013-02-12 08:42:00,
2013-02-12 03:52:00,33.0,28.0,29.78,WSW,256,15.0,25.0,81,0.00,,,0.16,,2013-02-12 08:52:00,
2013-02-12 04:02:00,33.0,28.0,29.78,WSW,248,18.0,33.0,81,0.00,,,0.16,,2013-02-12 09:02:00,
2013-02-12 04:11:00,33.0,28.0,29.78,WSW,248,18.0,33.0,81,0.00,,,0.16,,2013-02-12 09:11:00,
2013-02-12 04:21:00,33.0,28.0,29.79,WSW,253,16.0,28.0,82,0.00,,,0.13,,2013-02-12 09:21:00,
2013-02-12 04:32:00,33.0,28.0,29.80,West,263,17.0,30.0,81,0.00,,,0.13,,2013-02-12 09:32:00,
2013-02-12 04:42:00,33.0,28.0,29.80,West,263,17.0,30.0,81,0.00,,,0.13,,2013-02-12 09:42:00,
2013-02-12 04:52:00,33.0,28.0,29.81,West,271,13.0,28.0,81,0.00,,,0.13,,2013-02-12 09:52:00,
2013-02-12 05:01:00,33.0,28.0,29.80,WSW,248,16.0,31.0,81,0.00,,,0.13,,2013-02-12 10:01:00,
2013-02-12 05:11:00,33.0,28.0,29.81,WSW,248,20.0,34.0,80,0.00,,,0.11,,2013-02-12 10:11:00,
2013-02-12 05:21:00,33.0,28.0,29.81,WSW,248,20.0,34.0,80,0.00,,,0.11,,2013-02-12 10:21:00,
2013-02-12 05:32:00,33.0,28.0,29.82,WSW,246,13.0,28.0,80,0.00,,,0.11,,2013-02-12 10:32:00,
2013-02-12 05:43:00,33.0,28.0,29.82,WSW,246,13.0,28.0,80,0.00,,,0.11,,2013-02-12 10:43:00,
2013-02-12 05:52:00,33.0,28.0,29.82,West,262,14.0,29.0,80,0.00,,,0.11,,2013-02-12 10:52:00,
2013-02-12 06:01:00,33.0,28.0,29.83,WNW,288,16.0,28.0,80,0.00,,,0.11,,2013-02-12 11:01:00,
2013-02-12 06:11:00,33.0,28.0,29.83,WNW,288,16.0,28.0,80,0.00,,,0.11,,2013-02-12 11:11:00,
2013-02-12 06:22:00,33.0,28.0,29.83,WSW,256,16.0,25.0,81,0.00,,,0.06,,2013-02-12 11:22:00,
2013-02-12 06:32:00,33.0,28.0,29.84,West,266,15.0,27.0,81,0.00,,,0.06,,2013-02-12 11:32:00,
2013-02-12 06:42:00,33.0,28.0,29.84,West,266,15.0,27.0,81,0.00,,,0.06,,2013-02-12 11:42:00,
2013-02-12 06:53:00,33.0,28.0,29.84,WNW,290,14.0,29.0,81,0.00,,,0.06,,2013-02-12 11:53:00,
2013-02-12 07:02:00,33.0,28.0,29.84,WSW,256,18.0,28.0,81,0.00,,,0.06,,2013-02-12 12:02:00,
2013-02-12 07:11:00,33.0,28.0,29.84,WSW,256,18.0,28.0,81,0.00,,,0.06,,2013-02-12 12:11:00,
2013-02-12 07:21:00,33.0,28.0,29.85,WSW,254,18.0,27.0,80,0.00,,,0.06,,2013-02-12 12:21:00,
2013-02-12 07:32:00,33.0,28.0,29.86,West,264,18.0,31.0,80,0.00,,,0.06,,2013-02-12 12:32:00,
2013-02-12 07:42:00,33.0,28.0,29.86,West,264,18.0,31.0,80,0.00,,,0.06,,2013-02-12 12:42:00,
2013-02-12 07:53:00,33.0,28.0,29.87,WSW,249,15.0,30.0,80,0.00,,,0.06,,2013-02-12 12:53:00,
2013-02-12 08:01:00,33.0,28.0,29.87,WSW,252,17.0,25.0,80,0.00,,,0.06,,2013-02-12 13:01:00,
2013-02-12 08:11:00,33.0,28.0,29.88,WSW,252,18.0,26.0,80,0.00,,,0.06,,2013-02-12 13:11:00,
2013-02-12 08:22:00,33.0,28.0,29.88,WSW,252,18.0,26.0,80,0.00,,,0.06,,2013-02-12 13:22:00,
2013-02-12 08:32:00,33.0,28.0,29.89,West,264,15.0,25.0,80,0.00,,,0.06,,2013-02-12 13:32:00,
2013-02-12 08:42:00,33.0,28.0,29.89,West,264,15.0,25.0,80,0.00,,,0.06,,2013-02-12 13:42:00,
2013-02-12 08:52:00,33.0,28.0,29.89,West,275,10.0,25.0,80,0.00,,,0.06,,2013-02-12 13:52:00,
2013-02-12 09:01:00,33.0,27.0,29.90,WSW,240,12.0,26.0,79,0.00,,,0.06,,2013-02-12 14:01:00,
2013-02-12 09:12:00,33.0,27.0,29.90,WSW,240,12.0,26.0,79,0.00,,,0.06,,2013-02-12 14:12:00,
2013-02-12 09:22:00,33.0,27.0,29.90,West,266,17.0,24.0,78,0.00,,,0.06,,2013-02-12 14:22:00,
2013-02-12 09:32:00,33.0,27.0,29.90,SW,236,18.0,29.0,77,0.00,,,0.06,,2013-02-12 14:32:00,
2013-02-12 09:42:00,33.0,27.0,29.90,SW,236,18.0,29.0,77,0.00,,,0.06,,2013-02-12 14:42:00,
2013-02-12 09:52:00,33.0,27.0,29.91,West,279,16.0,24.0,77,0.00,,,0.06,,2013-02-12 14:52:00,
2013-02-12 10:02:00,33.0,27.0,29.92,SW,233,14.0,24.0,77,0.00,,,0.06,,2013-02-12 15:02:00,
2013-02-12 10:11:00,33.0,26.0,29.92,West,263,16.0,25.0,76,0.00,,,0.06,,2013-02-12 15:11:00,
2013-02-12 10:21:00,33.0,26.0,29.92,West,263,16.0,25.0,76,0.00,,,0.06,,2013-02-12 15:21:00,
2013-02-12 10:32:00,33.0,26.0,29.92,West,269,17.0,28.0,75,0.00,,,0.06,,2013-02-12 15:32:00,
2013-02-12 10:42:00,33.0,26.0,29.92,West,269,17.0,28.0,75,0.00,,,0.06,,2013-02-12 15:42:00,
2013-02-12 10:52:00,33.0,26.0,29.92,WSW,252,12.0,25.0,75,0.00,,,0.06,,2013-02-12 15:52:00,
2013-02-12 11:01:00,33.0,26.0,29.92,West,266,12.0,25.0,76,0.00,,,0.06,,2013-02-12 16:01:00,
2013-02-12 11:11:00,33.0,26.0,29.92,West,266,12.0,25.0,76,0.00,,,0.06,,2013-02-12 16:11:00,
2013-02-12 11:22:00,33.0,26.0,29.93,West,263,14.0,23.0,75,0.00,,,0.06,,2013-02-12 16:22:00,
2013-02-12 11:32:00,33.0,26.0,29.93,West,281,16.0,28.0,74,0.00,,,0.06,,2013-02-12 16:32:00,
2013-02-12 11:42:00,33.0,26.0,29.93,West,281,16.0,28.0,74,0.00,,,0.06,,2013-02-12 16:42:00,
2013-02-12 11:52:00,33.0,25.0,29.93,NW,321,13.0,23.0,73,0.00,,,0.06,,2013-02-12 16:52:00,
2013-02-12 12:01:00,33.0,25.0,29.94,WSW,253,12.0,23.0,73,0.00,,,0.06,,2013-02-12 17:01:00,
2013-02-12 12:12:00,33.0,25.0,29.94,WSW,253,12.0,23.0,73,0.00,,,0.06,,2013-02-12 17:12:00,
2013-02-12 12:21:00,33.0,25.0,29.93,West,271,13.0,22.0,72,0.00,,,0.06,,2013-02-12 17:21:00,
2013-02-12 12:32:00,33.0,25.0,29.94,WSW,250,16.0,26.0,72,0.00,,,0.06,,2013-02-12 17:32:00,
2013-02-12 12:42:00,33.0,25.0,29.94,WSW,250,16.0,26.0,72,0.00,,,0.06,,2013-02-12 17:42:00,
2013-02-12 12:52:00,33.0,25.0,29.94,WNW,283,11.0,22.0,73,0.00,,,0.06,,2013-02-12 17:52:00,
2013-02-12 13:02:00,33.0,25.0,29.94,WNW,288,13.0,23.0,73,0.00,,,0.06,,2013-02-12 18:02:00,
2013-02-12 13:12:00,33.0,25.0,29.94,WNW,288,13.0,23.0,73,0.00,,,0.06,,2013-02-12 18:12:00,
2013-02-12 13:23:00,33.0,26.0,29.93,West,264,13.0,25.0,74,0.00,,,0.01,,2013-02-12 18:23:00,
2013-02-12 13:32:00,32.0,25.0,29.93,WNW,282,8.0,22.0,75,0.00,,,0.01,,2013-02-12 18:32:00,
2013-02-12 13:42:00,32.0,25.0,29.93,WNW,282,8.0,22.0,75,0.00,,,0.01,,2013-02-12 18:42:00,
2013-02-12 13:52:00,32.0,25.0,29.92,WSW,254,12.0,19.0,74,0.00,,,0.01,,2013-02-12 18:52:00,
2013-02-12 14:02:00,32.0,25.0,29.92,WSW,253,17.0,26.0,74,0.00,,,0.01,,2013-02-12 19:02:00,
2013-02-12 14:11:00,32.0,25.0,29.92,WSW,253,17.0,26.0,74,0.00,,,0.01,,2013-02-12 19:11:00,
2013-02-12 14:21:00,32.0,25.0,29.92,WSW,243,11.0,23.0,75,0.00,,,0.01,,2013-02-12 19:21:00,
2013-02-12 14:32:00,32.0,25.0,29.92,WSW,245,11.0,24.0,76,0.00,,,0.01,,2013-02-12 19:32:00,
2013-02-12 14:42:00,32.0,25.0,29.92,WSW,245,11.0,24.0,76,0.00,,,0.01,,2013-02-12 19:42:00,
2013-02-12 14:52:00,32.0,25.0,29.92,West,281,11.0,18.0,76,0.00,,,0.01,,2013-02-12 19:52:00,
2013-02-12 15:01:00,32.0,25.0,29.92,West,263,10.0,19.0,75,0.00,,,0.01,,2013-02-12 20:01:00,
2013-02-12 15:11:00,32.0,25.0,29.92,West,263,10.0,19.0,75,0.00,,,0.01,,2013-02-12 20:11:00,
2013-02-12 15:21:00,32.0,25.0,29.92,WSW,242,10.0,17.0,75,0.00,,,0.01,,2013-02-12 20:21:00,
2013-02-12 15:32:00,32.0,25.0,29.92,WSW,253,8.0,18.0,75,0.00,,,0.01,,2013-02-12 20:32:00,
2013-02-12 15:41:00,32.0,25.0,29.92,WSW,253,8.0,18.0,75,0.00,,,0.01,,2013-02-12 20:41:00,
2013-02-12 15:52:00,32.0,25.0,29.91,West,266,12.0,20.0,74,0.00,,,0.01,,2013-02-12 20:52:00,
2013-02-12 16:02:00,32.0,25.0,29.90,West,264,11.0,16.0,74,0.00,,,0.01,,2013-02-12 21:02:00,
2013-02-12 16:11:00,32.0,25.0,29.90,West,264,11.0,16.0,74,0.00,,,0.01,,2013-02-12 21:11:00,
2013-02-12 16:21:00,32.0,25.0,29.90,WSW,256,12.0,17.0,74,0.00,,,0.00,,2013-02-12 21:21:00,
2013-02-12 16:32:00,31.0,24.0,29.91,West,269,7.0,18.0,76,0.00,,,0.00,,2013-02-12 21:32:00,
2013-02-12 16:42:00,31.0,24.0,29.91,WSW,257,11.0,17.0,76,0.00,,,0.00,,2013-02-12 21:42:00,
2013-02-12 16:52:00,31.0,24.0,29.91,WSW,257,11.0,17.0,76,0.00,,,0.00,,2013-02-12 21:52:00,
2013-02-12 17:01:00,31.0,24.0,29.91,WSW,256,10.0,22.0,76,0.00,,,0.00,,2013-02-12 22:01:00,
2013-02-12 17:12:00,31.0,24.0,29.91,WSW,256,10.0,22.0,76,0.00,,,0.00,,2013-02-12 22:12:00,
2013-02-12 17:21:00,31.0,24.0,29.91,WNW,290,9.0,19.0,76,0.00,,,0.00,,2013-02-12 22:21:00,
2013-02-12 17:32:00,31.0,25.0,29.91,WSW,239,9.0,17.0,77,0.00,,,0.00,,2013-02-12 22:32:00,
2013-02-12 17:42:00,31.0,25.0,29.91,WSW,239,9.0,17.0,77,0.00,,,0.00,,2013-02-12 22:42:00,
2013-02-12 17:52:00,31.0,25.0,29.92,WSW,253,10.0,16.0,77,0.00,,,0.00,,2013-02-12 22:52:00,
2013-02-12 18:01:00,31.0,24.0,29.93,WSW,255,11.0,15.0,76,0.00,,,0.00,,2013-02-12 23:01:00,
2013-02-12 18:11:00,31.0,24.0,29.93,WSW,256,9.0,17.0,76,0.00,,,0.00,,2013-02-12 23:11:00,
2013-02-12 18:21:00,31.0,24.0,29.93,WSW,256,9.0,17.0,76,0.00,,,0.00,,2013-02-12 23:21:00,
2013-02-12 18:32:00,31.0,24.0,29.94,SW,231,8.0,19.0,76,0.00,,,0.00,,2013-02-12 23:32:00,
2013-02-12 18:42:00,31.0,24.0,29.94,SW,231,8.0,19.0,76,0.00,,,0.00,,2013-02-12 23:42:00,
2013-02-12 18:52:00,31.0,25.0,29.94,West,259,13.0,21.0,79,0.00,,,0.00,,2013-02-12 23:52:00,
2013-02-12 19:02:00,31.0,25.0,29.95,WSW,255,10.0,20.0,79,0.00,,,0.00,,2013-02-13 00:02:00,
2013-02-12 19:11:00,31.0,25.0,29.95,WSW,255,10.0,20.0,79,0.00,,,0.00,,2013-02-13 00:11:00,
2013-02-12 19:22:00,31.0,25.0,29.95,WSW,239,10.0,20.0,79,0.00,,,0.00,,2013-02-13 00:22:00,
2013-02-12 19:32:00,31.0,26.0,29.95,West,273,11.0,22.0,80,0.00,,,0.00,,2013-02-13 00:32:00,
2013-02-12 19:42:00,31.0,26.0,29.95,West,273,11.0,22.0,80,0.00,,,0.00,,2013-02-13 00:42:00,
2013-02-12 19:52:00,31.0,26.0,29.95,SW,236,7.0,15.0,81,0.00,,,0.00,,2013-02-13 00:52:00,
2013-02-12 20:01:00,31.0,26.0,29.96,WSW,258,12.0,19.0,80,0.00,,,0.00,,2013-02-13 01:01:00,
2013-02-12 20:11:00,31.0,26.0,29.96,WSW,258,12.0,19.0,80,0.00,,,0.00,,2013-02-13 01:11:00,
2013-02-12 20:21:00,31.0,25.0,29.96,West,281,12.0,19.0,79,0.00,,,0.00,,2013-02-13 01:21:00,
2013-02-12 20:31:00,31.0,25.0,29.96,West,270,7.0,19.0,79,0.00,,,0.00,,2013-02-13 01:31:00,
2013-02-12 20:42:00,31.0,25.0,29.96,West,270,7.0,19.0,79,0.00,,,0.00,,2013-02-13 01:42:00,
2013-02-12 20:52:00,31.0,25.0,29.96,WSW,253,11.0,24.0,79,0.00,,,0.00,,2013-02-13 01:52:00,
2013-02-12 21:01:00,30.0,25.0,29.96,WSW,255,7.0,16.0,81,0.00,,,0.00,,2013-02-13 02:01:00,
2013-02-12 21:11:00,30.0,25.0,29.96,WSW,255,7.0,16.0,81,0.00,,,0.00,,2013-02-13 02:11:00,
2013-02-12 21:22:00,30.0,25.0,29.95,West,262,7.0,16.0,82,0.00,,,0.00,,2013-02-13 02:22:00,
2013-02-12 21:32:00,30.0,25.0,29.94,WSW,257,6.0,13.0,81,0.00,,,0.00,,2013-02-13 02:32:00,
2013-02-12 21:42:00,30.0,25.0,29.94,WSW,257,6.0,13.0,81,0.00,,,0.00,,2013-02-13 02:42:00,
2013-02-12 21:52:00,30.0,25.0,29.94,West,259,6.0,12.0,81,0.00,,,0.00,,2013-02-13 02:52:00,
2013-02-12 22:01:00,30.0,25.0,29.94,West,269,4.0,9.0,82,0.00,,,0.00,,2013-02-13 03:01:00,
2013-02-12 22:11:00,30.0,25.0,29.93,West,281,5.0,11.0,81,0.00,,,0.00,,2013-02-13 03:11:00,
2013-02-12 22:21:00,30.0,25.0,29.93,West,281,5.0,11.0,81,0.00,,,0.00,,2013-02-13 03:21:00,
2013-02-12 22:32:00,30.0,25.0,29.92,West,262,7.0,10.0,81,0.00,,,0.00,,2013-02-13 03:32:00,
2013-02-12 22:42:00,30.0,25.0,29.92,West,262,7.0,10.0,81,0.00,,,0.00,,2013-02-13 03:42:00,
2013-02-12 22:52:00,30.0,25.0,29.92,West,274,7.0,10.0,81,0.00,,,0.00,,2013-02-13 03:52:00,
2013-02-12 23:01:00,30.0,24.0,29.92,West,266,6.0,13.0,78,0.00,,,0.00,,2013-02-13 04:01:00,
2013-02-12 23:11:00,30.0,24.0,29.92,West,266,6.0,13.0,78,0.00,,,0.00,,2013-02-13 04:11:00,
2013-02-12 23:21:00,30.0,24.0,29.92,West,274,6.0,9.0,77,0.00,,,0.00,,2013-02-13 04:21:00,
2013-02-12 23:32:00,30.0,24.0,29.91,WSW,252,3.0,7.0,77,0.00,,,0.00,,2013-02-13 04:32:00,
2013-02-12 23:42:00,30.0,24.0,29.91,WSW,252,3.0,7.0,77,0.00,,,0.00,,2013-02-13 04:42:00,
2013-02-12 23:52:00,30.0,24.0,29.91,WSW,248,3.0,6.0,79,0.00,,,0.00,,2013-02-13 04:52:00,